Weather History for Cullman Regional Airport, LA

Change the Weather History Date:

Friday, April 25, 2014

  Actual Average Record
Temperature  
Mean Temperature 64 °F -  
Max Temperature 74 °F - - ()
Min Temperature 52 °F - - ()
Degree Days  
Heating Degree Days 2    
Growing Degree Days 14 (Base 50)    
Moisture  
Dew Point 56 °F    
Average Humidity 74    
Maximum Humidity 97    
Minimum Humidity 44    
Precipitation  
Precipitation 0.03 in - - ()
Sea Level Pressure  
Sea Level Pressure 29.94 in    
Wind  
Wind Speed 8 mph (West)    
Max Wind Speed 15 mph    
Max Gust Speed 22 mph    
Visibility 10 miles    
Events Rain    
T = Trace of Precipitation, MM = Missing Value Source: NWS Daily Summary

Daily Weather History Graph

Daily Weather History Graph

Search for Another Location

Airport:

Trip Planner

Search our weather history database for the weather conditions in past years. The results will help you decide how hot, cold, wet, or windy it might be!

Date:

Astronomy

Apr. 25, 2014 Rise Set
Actual Time 6:04 AM CDT 7:26 PM CDT
Civil Twilight 5:37 AM CDT 7:53 PM CDT
Nautical Twilight 5:06 AM CDT 8:25 PM CDT
Astronomical Twilight 4:33 AM CDT 8:58 PM CDT
Moon 3:41 AM CDT (4/25) 3:58 PM CDT (4/25)
Length of Visible Light 14h 15m
Length of Day
13h 22m
Waning Crescent, 15% of the Moon is Illuminated
Apr 25
Waning Crescent
Apr 29
New
May 6
First Quarter
May 14
Full
May 21
Last Quarter

Hourly Weather History & Observations

Time (CDT) Temp. Dew Point Humidity Pressure Visibility Wind Dir Wind Speed Gust Speed Precip Events Conditions
12:15 AM 64.9 °F 60.4 °F 85% 29.80 in 10.0 mi South 13.8 mph 21.9 mph N/A   Light Drizzle
12:35 AM 64.8 °F 60.3 °F 85% 29.84 in 10.0 mi SW 8.1 mph - N/A   Clear
12:55 AM 64.4 °F 60.3 °F 86% 29.84 in 10.0 mi SW 3.5 mph - N/A   Clear
1:15 AM 64.0 °F 60.4 °F 88% 29.84 in 10.0 mi SW 5.8 mph - N/A   Scattered Clouds
1:35 AM 64.2 °F 60.6 °F 88% 29.84 in 10.0 mi SSW 12.7 mph 16.1 mph N/A   Mostly Cloudy
1:55 AM 64.9 °F 60.8 °F 86% 29.84 in 10.0 mi SSW 15.0 mph 21.9 mph N/A   Overcast
2:15 AM 65.1 °F 60.8 °F 86% 29.83 in 10.0 mi SSW 13.8 mph - N/A   Overcast
2:35 AM 64.9 °F 61.0 °F 87% 29.83 in 10.0 mi SSW 13.8 mph 21.9 mph N/A   Overcast
2:55 AM 64.6 °F 61.0 °F 88% 29.83 in 10.0 mi South 11.5 mph 17.3 mph N/A   Mostly Cloudy
3:15 AM 63.9 °F 60.8 °F 90% 29.82 in 10.0 mi South 13.8 mph 20.7 mph N/A   Scattered Clouds
3:35 AM 63.9 °F 61.0 °F 90% 29.82 in 10.0 mi South 13.8 mph 18.4 mph N/A Rain Light Rain
3:55 AM 63.5 °F 61.0 °F 91% 29.82 in 7.0 mi SSW 12.7 mph 18.4 mph 0.02 in Rain Light Rain
4:15 AM 63.0 °F 61.3 °F 94% 29.83 in 7.0 mi SSW 10.4 mph - 0.01 in   Overcast
4:35 AM 63.1 °F 61.7 °F 95% 29.83 in 7.0 mi SSW 10.4 mph 18.4 mph 0.01 in   Overcast
4:55 AM 63.1 °F 61.7 °F 95% 29.84 in 7.0 mi SW 8.1 mph 16.1 mph 0.01 in   Overcast
5:15 AM 63.5 °F 61.5 °F 93% 29.84 in 10.0 mi SW 6.9 mph 16.1 mph N/A   Overcast
5:35 AM 63.5 °F 61.2 °F 92% 29.85 in 10.0 mi SW 6.9 mph - N/A   Overcast
5:55 AM 62.8 °F 60.3 °F 91% 29.86 in 10.0 mi SW 5.8 mph - N/A   Mostly Cloudy
6:15 AM 62.1 °F 59.2 °F 90% 29.87 in 10.0 mi SW 4.6 mph - N/A   Scattered Clouds
6:35 AM 61.7 °F 58.5 °F 89% 29.88 in 10.0 mi West 4.6 mph - N/A   Mostly Cloudy
6:55 AM 61.7 °F 57.9 °F 87% 29.89 in 10.0 mi West 5.8 mph 17.3 mph N/A   Mostly Cloudy
7:15 AM 61.9 °F 55.8 °F 80% 29.90 in 10.0 mi WSW 4.6 mph - N/A   Clear
7:35 AM 62.2 °F 54.9 °F 77% 29.91 in 10.0 mi West 8.1 mph - N/A   Scattered Clouds
7:55 AM 61.5 °F 55.2 °F 80% 29.91 in 10.0 mi WSW 8.1 mph - N/A   Mostly Cloudy
8:15 AM 61.7 °F 55.0 °F 79% 29.93 in 10.0 mi West 8.1 mph - N/A   Mostly Cloudy
8:35 AM 61.7 °F 54.5 °F 77% 29.94 in 10.0 mi West 5.8 mph - N/A   Overcast
8:55 AM 62.1 °F 54.7 °F 77% 29.94 in 10.0 mi West 5.8 mph - N/A   Overcast
9:15 AM 63.0 °F 54.5 °F 74% 29.94 in 10.0 mi West 9.2 mph - N/A   Mostly Cloudy
9:35 AM 63.5 °F 54.5 °F 72% 29.96 in 10.0 mi West 8.1 mph - N/A   Overcast
9:55 AM 63.0 °F 54.0 °F 72% 29.97 in 10.0 mi WNW 8.1 mph - N/A   Overcast
10:15 AM 62.8 °F 54.1 °F 73% 29.98 in 10.0 mi Calm Calm - N/A   Overcast
10:35 AM 63.1 °F 54.1 °F 72% 29.99 in 10.0 mi West 8.1 mph - N/A   Overcast
10:55 AM 64.4 °F 54.3 °F 70% 29.99 in 10.0 mi West 5.8 mph - N/A   Mostly Cloudy
11:15 AM 66.2 °F 54.3 °F 65% 29.99 in 10.0 mi NW 6.9 mph - N/A   Mostly Cloudy
11:35 AM 66.4 °F 54.5 °F 66% 29.99 in 10.0 mi NW 8.1 mph - N/A   Overcast
11:55 AM 67.3 °F 54.7 °F 64% 29.99 in 10.0 mi NW 6.9 mph - N/A   Overcast
12:15 PM 69.1 °F 54.7 °F 60% 29.99 in 10.0 mi WNW 9.2 mph - N/A   Scattered Clouds
12:35 PM 69.6 °F 54.5 °F 59% 29.99 in 10.0 mi West 10.4 mph 17.3 mph N/A   Scattered Clouds
12:55 PM 69.4 °F 55.0 °F 60% 29.99 in 10.0 mi WNW 8.1 mph - N/A   Mostly Cloudy
1:15 PM 69.1 °F 54.9 °F 60% 29.98 in 10.0 mi NW 8.1 mph - N/A   Mostly Cloudy
1:35 PM 70.0 °F 54.9 °F 59% 29.98 in 10.0 mi NNW 6.9 mph - N/A   Scattered Clouds
1:55 PM 71.8 °F 55.2 °F 56% 29.98 in 10.0 mi West 6.9 mph - N/A   Scattered Clouds
2:15 PM 72.1 °F 54.9 °F 54% 29.98 in 10.0 mi NW 5.8 mph - N/A   Scattered Clouds
2:35 PM 72.5 °F 54.7 °F 53% 29.98 in 10.0 mi NW 6.9 mph - N/A   Clear
2:55 PM 73.2 °F 54.7 °F 52% 29.98 in 10.0 mi WNW 6.9 mph - N/A   Clear
3:15 PM 74.1 °F 55.0 °F 51% 29.97 in 10.0 mi NW 5.8 mph - N/A   Clear
3:35 PM 73.8 °F 53.8 °F 50% 29.96 in 10.0 mi NW 9.2 mph 16.1 mph N/A   Clear
3:55 PM 74.1 °F 53.6 °F 49% 29.96 in 10.0 mi NNW 3.5 mph - N/A   Clear
4:15 PM 74.5 °F 52.9 °F 47% 29.96 in 10.0 mi WNW 4.6 mph - N/A   Clear
4:35 PM 74.3 °F 52.0 °F 46% 29.96 in 10.0 mi NNW 8.1 mph - N/A   Clear
4:55 PM 74.1 °F 50.7 °F 44% 29.96 in 10.0 mi North 5.8 mph - N/A   Clear
5:15 PM 73.9 °F 51.3 °F 45% 29.96 in 10.0 mi NW 6.9 mph - N/A   Clear
5:35 PM 73.2 °F 52.5 °F 48% 29.96 in 10.0 mi NW 4.6 mph - N/A   Clear
5:55 PM 72.5 °F 52.3 °F 49% 29.96 in 10.0 mi North 8.1 mph - N/A   Clear
6:15 PM 71.6 °F 52.3 °F 51% 29.96 in 10.0 mi NW 4.6 mph - N/A   Clear
6:35 PM 70.9 °F 52.9 °F 53% 29.97 in 10.0 mi NNW 5.8 mph - N/A   Clear
6:55 PM 69.4 °F 53.4 °F 57% 29.97 in 10.0 mi North 5.8 mph - N/A   Clear
7:15 PM 67.8 °F 53.8 °F 61% 29.98 in 10.0 mi North 4.6 mph - N/A   Clear
7:35 PM 66.0 °F 53.6 °F 64% 29.99 in 7.0 mi North 4.6 mph - N/A   Clear
7:55 PM 64.2 °F 53.2 °F 67% 29.99 in 10.0 mi Calm Calm - N/A   Clear
8:15 PM 62.8 °F 53.1 °F 71% 29.99 in 10.0 mi NNE 3.5 mph - N/A   Clear
8:35 PM 61.2 °F 53.2 °F 75% 29.99 in 10.0 mi Calm Calm - N/A   Clear
8:55 PM 59.2 °F 53.1 °F 80% 30.00 in 10.0 mi Calm Calm - N/A   Clear
9:15 PM 57.7 °F 53.1 °F 84% 30.01 in 10.0 mi Calm Calm - N/A   Clear
9:35 PM 56.7 °F 52.5 °F 86% 30.01 in 10.0 mi Calm Calm - N/A   Clear
9:55 PM 55.8 °F 52.5 °F 89% 30.01 in 10.0 mi Calm Calm - N/A   Clear
10:15 PM 54.9 °F 52.5 °F 92% 30.02 in 10.0 mi Calm Calm - N/A   Clear
10:35 PM 54.5 °F 52.2 °F 92% 30.02 in 10.0 mi Calm Calm - N/A   Clear
11:15 PM 53.1 °F 51.8 °F 95% 30.01 in 10.0 mi Calm Calm - N/A   Clear
11:35 PM 53.1 °F 52.2 °F 97% 30.01 in 10.0 mi Calm Calm - N/A   Clear
11:55 PM 52.7 °F 51.8 °F 97% 30.01 in 10.0 mi Calm Calm - N/A   Clear